{"data":{"norad_id":48462,"epoch":"2026-05-25T03:20:38.700384Z","epoch_age_seconds":60054,"freshness":"FRESH","line1":"1 48462U 21040AL  26145.13933681  .00018095  00000+0  59320-3 0  9997","line2":"2 48462  53.1589 195.4987 0001449  86.7024 273.4143 15.31714020278213","mean_motion":15.3171402,"eccentricity":0.0001449,"inclination_deg":53.1589,"raan_deg":195.4987,"arg_perigee_deg":86.7024,"mean_anomaly_deg":273.4143,"bstar":0.0005932,"rev_number":27821,"period_min":94.01232744478,"perigee_km":469.7058064331,"apogee_km":471.69059887483,"semimajor_km":6848.835202654,"source":"CELESTRAK","updated_at":"2026-05-25T13:38:16.719313Z"}}